Guymon, OK

5:04 PM CDT on May 26, 2017 (GMT -0500)
Guymon Municipal

Weather History for KGUY - June, 2012

Change the Weather History Date:

Monday, June 18, 2012

  Actual Average Record
Temperature  
Mean Temperature 83 °F 75 °F  
Max Temperature 100 °F 88 °F 100 °F (2012)
Min Temperature 66 °F 61 °F 48 °F (2000)
Degree Days  
Heating Degree Days 0 0  
Month to date heating degree days 0 6  
Since 1 June heating degree days 0 6  
Since 1 July heating degree days 3791 4455  
Cooling Degree Days 18 10  
Month to date cooling degree days 214 140  
Year to date cooling degree days 479 248  
Since 1 June cooling degree days 214 140  
Growing Degree Days 33 (Base 50)    
Moisture  
Dew Point 58 °F    
Average Humidity 49    
Maximum Humidity 78    
Minimum Humidity 19    
Precipitation  
Precipitation 0.00 in 0.10 in 0.19 in (2013)
Month to date precipitation 2.26 2.06  
Year to date precipitation 5.92 8.31  
Snow  
Snow 0.00 in - - ()
Month to date snowfall 0.0  
Since 1 June snowfall 0.0  
Since 1 July snowfall 9.1  
Snow Depth 0.00 in    
Sea Level Pressure  
Sea Level Pressure 29.49 in    
Wind  
Wind Speed 15 mph (South)    
Max Wind Speed 29 mph    
Max Gust Speed 39 mph    
Visibility 10 miles    
Events      
T = Trace of Precipitation, MM = Missing Value Source: NWS Daily Summary

Daily Weather History Graph

Daily Weather History Graph

Search for Another Location

Airport or City:

Trip Planner

Search our weather history database for the weather conditions in past years. The results will help you decide how hot, cold, wet, or windy it might be!

Date:

Astronomy

Jun. 18, 2012 Rise Set
Actual Time 6:27 AM CDT 9:07 PM CDT
Civil Twilight 5:56 AM CDT 9:38 PM CDT
Nautical Twilight 5:18 AM CDT 10:16 PM CDT
Astronomical Twilight 4:35 AM CDT 10:59 PM CDT
Moon 5:42 AM CDT (6/18) 8:28 PM CDT (6/18)
Length of Visible Light 15h 41m
Length of Day
14h 40m
Waning Crescent, 1% of the Moon is Illuminated
Jun 18
Waning Crescent
Jun 19
New
Jun 26
First Quarter
Jul 3
Full
Jul 10
Last Quarter

Hourly Weather History & Observations

Time (CDT) Temp. Heat Index Dew Point Humidity Pressure Visibility Wind Dir Wind Speed Gust Speed Precip Events Conditions
12:53 AM 77.0 °F - 57.0 °F 50% 29.55 in 10.0 mi South 18.4 mph 24.2 mph N/A   Clear
1:53 AM 75.9 °F - 60.1 °F 58% 29.53 in 10.0 mi South 17.3 mph - N/A   Clear
2:53 AM 73.0 °F - 61.0 °F 66% 29.52 in 10.0 mi South 15.0 mph - N/A   Clear
3:53 AM 72.0 °F - 62.1 °F 71% 29.49 in 10.0 mi South 15.0 mph 21.9 mph N/A   Clear
4:53 AM 70.0 °F - 61.0 °F 73% 29.49 in 10.0 mi South 10.4 mph - N/A   Clear
5:53 AM 68.0 °F - 60.1 °F 76% 29.49 in 10.0 mi South 10.4 mph - N/A   Clear
6:53 AM 66.0 °F - 59.0 °F 78% 29.50 in 10.0 mi South 5.8 mph - N/A   Clear
7:53 AM 69.1 °F - 60.1 °F 73% 29.52 in 10.0 mi South 4.6 mph - N/A   Clear
8:53 AM 75.0 °F - 57.0 °F 53% 29.51 in 10.0 mi South 11.5 mph - N/A   Clear
9:53 AM 78.1 °F - 57.9 °F 50% 29.52 in 10.0 mi South 8.1 mph - N/A   Clear
10:53 AM 82.9 °F 82.4 °F 57.0 °F 41% 29.52 in 10.0 mi South 8.1 mph - N/A   Clear
11:53 AM 87.1 °F 85.9 °F 57.0 °F 36% 29.51 in 10.0 mi South 9.2 mph - N/A   Clear
12:53 PM 91.9 °F 90.6 °F 57.0 °F 31% 29.49 in 10.0 mi SSE 12.7 mph 17.3 mph N/A   Clear
1:53 PM 95.0 °F 93.4 °F 55.9 °F 27% 29.49 in 10.0 mi SSE 17.3 mph 21.9 mph N/A   Clear
2:53 PM 98.1 °F 96.1 °F 54.0 °F 23% 29.47 in 10.0 mi SSE 18.4 mph 24.2 mph N/A   Clear
3:53 PM 100.0 °F 98.3 °F 55.0 °F 22% 29.45 in 10.0 mi South 19.6 mph 25.3 mph N/A   Clear
4:53 PM 99.0 °F 97.3 °F 55.0 °F 23% 29.44 in 10.0 mi SSE 17.3 mph 27.6 mph N/A   Clear
5:53 PM 100.0 °F - 52.0 °F 20% 29.44 in 10.0 mi South 19.6 mph 28.8 mph N/A   Clear
6:53 PM 98.1 °F 95.7 °F 53.1 °F 22% 29.44 in 10.0 mi South 18.4 mph 28.8 mph N/A   Clear
7:53 PM 95.0 °F 93.0 °F 55.0 °F 26% 29.44 in 10.0 mi South 21.9 mph 27.6 mph N/A   Clear
8:53 PM 90.0 °F 89.1 °F 59.0 °F 35% 29.45 in 10.0 mi SSE 16.1 mph 23.0 mph N/A   Clear
9:53 PM 86.0 °F 85.7 °F 60.1 °F 41% 29.47 in 10.0 mi SSE 16.1 mph 26.5 mph N/A   Clear
10:53 PM 82.9 °F 83.3 °F 61.0 °F 47% 29.49 in 10.0 mi SSE 23.0 mph 32.2 mph N/A   Clear
11:53 PM 81.0 °F 82.2 °F 63.0 °F 54% 29.50 in 10.0 mi SSE 20.7 mph 32.2 mph N/A   Clear